Weather History for KALS - June, 2013

Change the Weather History Date:

Friday, June 7, 2013

  Actual Average Record
Temperature  
Mean Temperature 57 °F 57 °F  
Max Temperature 76 °F 76 °F 88 °F (2004)
Min Temperature 37 °F 38 °F 26 °F (1954)
Degree Days  
Heating Degree Days 8 8  
Month to date heating degree days 58 60  
Since 1 June heating degree days 58 60  
Since 1 July heating degree days 8999 8486  
Cooling Degree Days 0 0  
Month to date cooling degree days 0 0  
Year to date cooling degree days 0 0  
Since 1 June cooling degree days 0 0  
Growing Degree Days 6 (Base 50)    
Moisture  
Dew Point 34 °F    
Average Humidity 51    
Maximum Humidity 82    
Minimum Humidity 19    
Precipitation  
Precipitation T in 0.02 in 0.46 in (1938)
Month to date precipitation T 0.11  
Year to date precipitation 1.06 2.33  
Snow  
Snow 0.00 in 0.00 in 0.00 in (2002)
Month to date snowfall 0.0 0.0  
Since 1 June snowfall 0.0 0.0  
Since 1 July snowfall 21.1 27.6  
Snow Depth 0.00 in    
Sea Level Pressure  
Sea Level Pressure 29.93 in    
Wind  
Wind Speed 7 mph (SSW)    
Max Wind Speed 30 mph    
Max Gust Speed 37 mph    
Visibility 10 miles    
Events      
T = Trace of Precipitation, MM = Missing Value Source: NWS Daily Summary

Daily Weather History Graph

Daily Weather History Graph

Search for Another Location

Airport or City:

Trip Planner

Search our weather history database for the weather conditions in past years. The results will help you decide how hot, cold, wet, or windy it might be!

Date:

Astronomy

Jun. 07, 2013 Rise Set
Actual Time 5:42 AM MDT 8:22 PM MDT
Civil Twilight 5:11 AM MDT 8:53 PM MDT
Nautical Twilight 4:33 AM MDT 9:31 PM MDT
Astronomical Twilight 3:50 AM MDT 10:15 PM MDT
Moon 5:05 AM MDT (6/7) 7:40 PM MDT (6/7)
Length of Visible Light 15h 41m
Length of Day
14h 40m
Waning Crescent, 1% of the Moon is Illuminated
Jun 7
Waning Crescent
Jun 8
New
Jun 16
First Quarter
Jun 23
Full
Jun 29
Last Quarter

Hourly Weather History & Observations

Time (MDT) Temp. Windchill Dew Point Humidity Pressure Visibility Wind Dir Wind Speed Gust Speed Precip Events Conditions
12:52 AM 51.1 °F - 35.1 °F 54% 29.95 in 10.0 mi South 5.8 mph - N/A   Clear
1:52 AM 46.0 °F 44.8 °F 34.0 °F 63% 29.97 in 10.0 mi East 3.5 mph - N/A   Clear
2:52 AM 39.0 °F - 32.0 °F 76% 30.00 in 10.0 mi Calm Calm - N/A   Mostly Cloudy
3:52 AM 43.0 °F - 34.0 °F 71% 30.00 in 10.0 mi Calm Calm - N/A   Mostly Cloudy
4:52 AM 39.9 °F - 30.9 °F 70% 30.01 in 10.0 mi Calm Calm - N/A   Clear
5:52 AM 37.0 °F - 32.0 °F 82% 30.06 in 10.0 mi Calm Calm - N/A   Clear
6:52 AM 46.0 °F 44.8 °F 36.0 °F 68% 30.02 in 10.0 mi SE 3.5 mph - N/A   Clear
7:52 AM 53.1 °F - 35.1 °F 50% 30.00 in 10.0 mi ESE 3.5 mph - N/A   Clear
8:52 AM 59.0 °F - 35.1 °F 41% 30.01 in 10.0 mi East 4.6 mph - N/A   Clear
9:52 AM 62.1 °F - 37.0 °F 39% 30.00 in 10.0 mi Variable 3.5 mph - N/A   Clear
10:52 AM 66.0 °F - 37.0 °F 34% 29.96 in 10.0 mi SSW 4.6 mph - N/A   Clear
11:52 AM 71.1 °F - 36.0 °F 28% 29.91 in 10.0 mi NNE 8.1 mph - N/A   Clear
12:52 PM 72.0 °F - 37.0 °F 28% 29.89 in 10.0 mi WNW 12.7 mph - N/A   Clear
1:52 PM 73.9 °F - 35.1 °F 24% 29.91 in 10.0 mi NW 23.0 mph 27.6 mph N/A   Clear
2:52 PM 73.9 °F - 28.9 °F 19% 29.91 in 10.0 mi WSW 12.7 mph 17.3 mph N/A   Clear
3:52 PM 72.0 °F - 32.0 °F 23% 29.90 in 10.0 mi SW 23.0 mph 26.5 mph N/A   Scattered Clouds
4:52 PM 68.0 °F - 37.0 °F 32% 29.94 in 10.0 mi West 16.1 mph 24.2 mph 0.00 in   Partly Cloudy
5:52 PM 69.1 °F - 35.1 °F 29% 29.90 in 10.0 mi SSW 9.2 mph - N/A   Clear
6:52 PM 68.0 °F - 34.0 °F 28% 29.85 in 10.0 mi SSW 9.2 mph - N/A   Clear
7:52 PM 66.9 °F - 32.0 °F 27% 29.83 in 10.0 mi Calm Calm - N/A   Clear
8:52 PM 57.0 °F - 34.0 °F 42% 29.85 in 10.0 mi South 5.8 mph - N/A   Partly Cloudy
9:52 PM 54.0 °F - 34.0 °F 47% 29.86 in 10.0 mi SW 6.9 mph - N/A   Clear
10:52 PM 51.1 °F - 35.1 °F 54% 29.86 in 10.0 mi WSW 4.6 mph - N/A   Clear
11:52 PM 46.9 °F - 34.0 °F 61% 29.85 in 10.0 mi Calm Calm - N/A   Clear